| time (UTC) | temp F | wind direction | speed MPH | gust MPH | rain 1hr in | rain 24hr in | rain mn in | humidity % | barometer mb |
| 20260904193405 | 59 | 138 | 1.0 | 6.0 | 0.00 | 0.10 | 0.10 | 75 | 1014.7 |
| 20260904192903 | 58 | 167 | 1.0 | 6.0 | 0.00 | 0.10 | 0.10 | 77 | 1014.7 |
| 20260904192404 | 58 | 160 | 1.0 | 5.0 | 0.00 | 0.10 | 0.10 | 76 | 1014.7 |
| 20260904191905 | 58 | 158 | 1.0 | 5.0 | 0.00 | 0.10 | 0.10 | 77 | 1014.8 |
| 20260904191406 | 57 | 139 | 1.0 | 3.0 | 0.00 | 0.10 | 0.10 | 77 | 1014.8 |
| 20260904191229 | 57 | 139 | 1.0 | 5.0 | 0.00 | 0.10 | 0.10 | 78 | 1014.8 |
| 20260904190405 | 57 | 132 | 1.0 | 5.0 | 0.00 | 0.10 | 0.10 | 79 | 1014.8 |
| 20260904185909 | 56 | 102 | 1.0 | 4.0 | 0.00 | 0.10 | 0.10 | 79 | 1014.7 |
| 20260904185414 | 56 | 166 | 0.0 | 4.0 | 0.00 | 0.10 | 0.10 | 81 | 1014.6 |
| 20260904184911 | 56 | 170 | 0.0 | 5.0 | 0.00 | 0.10 | 0.10 | 81 | 1014.7 |
| 20260904184403 | 55 | 171 | 0.0 | 5.0 | 0.00 | 0.10 | 0.10 | 81 | 1014.6 |
| 20260904183903 | 55 | 171 | 0.0 | 4.0 | 0.00 | 0.10 | 0.10 | 82 | 1014.6 |
| 20260904183715 | 54 | 171 | 0.0 | 4.0 | 0.00 | 0.10 | 0.10 | 84 | 1014.6 |
| 20260904182901 | 54 | 83 | 0.0 | 2.0 | 0.00 | 0.10 | 0.10 | 85 | 1014.6 |
| 20260904182400 | 53 | 83 | 0.0 | 1.0 | 0.00 | 0.10 | 0.10 | 86 | 1014.5 |
| 20260904181904 | 53 | 83 | 0.0 | 2.0 | 0.00 | 0.10 | 0.10 | 86 | 1014.3 |
| 20260904181402 | 53 | 83 | 0.0 | 4.0 | 0.00 | 0.10 | 0.10 | 87 | 1014.3 |
| 20260904180902 | 53 | 83 | 0.0 | 4.0 | 0.00 | 0.10 | 0.10 | 88 | 1014.3 |
| 20260904180358 | 52 | 83 | 0.0 | 2.0 | 0.00 | 0.10 | 0.10 | 89 | 1014.3 |
| 20260904175851 | 52 | 83 | 0.0 | 3.0 | 0.00 | 0.10 | 0.10 | 89 | 1014.3 |
| 20260904175350 | 52 | 83 | 0.0 | 3.0 | 0.00 | 0.10 | 0.10 | 92 | 1014.3 |
| 20260904174850 | 52 | 83 | 0.0 | 3.0 | 0.00 | 0.10 | 0.10 | 89 | 1014.2 |
| 20260904174704 | 52 | 83 | 0.0 | 3.0 | 0.00 | 0.10 | 0.10 | 89 | 1014.1 |
| 20260904173845 | 52 | 83 | 0.0 | 1.0 | 0.00 | 0.10 | 0.10 | 89 | 1014.1 |
| 20260904173344 | 52 | 83 | 0.0 | 1.0 | 0.00 | 0.10 | 0.10 | 89 | 1014.1 |
| 20260904172840 | 52 | 83 | 0.0 | 0.0 | 0.00 | 0.10 | 0.10 | 89 | 1014.1 |
| 20260904172338 | 51 | 83 | 0.0 | 0.0 | 0.00 | 0.10 | 0.10 | 89 | 1014.0 |
| 20260904172158 | 51 | 83 | 0.0 | 0.0 | 0.00 | 0.10 | 0.10 | 89 | 1013.9 |
| 20260904171337 | 51 | 83 | 0.0 | 0.0 | 0.00 | 0.10 | 0.10 | 92 | 1014.0 |
| 20260904170838 | 51 | 83 | 0.0 | 3.0 | 0.00 | 0.10 | 0.10 | 89 | 1013.9 |
| 20260904170336 | 51 | 83 | 0.0 | 3.0 | 0.00 | 0.10 | 0.10 | 89 | 1013.9 |
| 20260904165835 | 51 | 83 | 0.0 | 3.0 | 0.00 | 0.10 | 0.10 | 89 | 1013.8 |
| 20260904165335 | 51 | 83 | 0.0 | 3.0 | 0.00 | 0.10 | 0.10 | 89 | 1013.8 |
| 20260904164831 | 51 | 83 | 0.0 | 2.0 | 0.00 | 0.10 | 0.10 | 89 | 1013.8 |
| 20260904164331 | 51 | 83 | 0.0 | 2.0 | 0.00 | 0.10 | 0.10 | 89 | 1013.7 |
| 20260904163830 | 51 | 83 | 0.0 | 2.0 | 0.00 | 0.10 | 0.10 | 89 | 1013.7 |
| 20260904163653 | 51 | 83 | 0.0 | 2.0 | 0.00 | 0.10 | 0.10 | 89 | 1013.7 |
| 20260904162830 | 51 | 83 | 0.0 | 2.0 | 0.00 | 0.10 | 0.10 | 89 | 1013.6 |
| 20260904162330 | 51 | 83 | 0.0 | 1.0 | 0.00 | 0.10 | 0.10 | 89 | 1013.6 |
| 20260904161830 | 50 | 83 | 0.0 | 0.0 | 0.00 | 0.10 | 0.10 | 89 | 1013.5 |
| 20260904161331 | 50 | 83 | 0.0 | 0.0 | 0.00 | 0.10 | 0.10 | 89 | 1013.4 |
| 20260904160831 | 50 | 83 | 0.0 | 0.0 | 0.00 | 0.10 | 0.10 | 89 | 1013.4 |
| 20260904160653 | 50 | 83 | 0.0 | 0.0 | 0.00 | 0.10 | 0.10 | 89 | 1013.4 |
| 20260904155830 | 51 | 83 | 0.0 | 0.0 | 0.00 | 0.10 | 0.10 | 89 | 1013.2 |
| 20260904155330 | 51 | 83 | 0.0 | 0.0 | 0.00 | 0.10 | 0.10 | 89 | 1013.1 |
| 20260904154831 | 51 | 83 | 0.0 | 0.0 | 0.00 | 0.10 | 0.10 | 89 | 1013.0 |
| 20260904154331 | 51 | 83 | 0.0 | 0.0 | 0.00 | 0.10 | 0.10 | 89 | 1012.9 |
| 20260904153832 | 51 | 83 | 0.0 | 0.0 | 0.00 | 0.10 | 0.10 | 89 | 1013.0 |
| 20260904153330 | 51 | 83 | 0.0 | 0.0 | 0.00 | 0.10 | 0.10 | 89 | 1013.0 |
| 20260904152831 | 51 | 83 | 0.0 | 0.0 | 0.00 | 0.10 | 0.10 | 89 | 1013.1 |
| 20260904152330 | 51 | 83 | 0.0 | 0.0 | 0.00 | 0.10 | 0.10 | 88 | 1013.1 |
| 20260904151834 | 51 | 83 | 0.0 | 0.0 | 0.00 | 0.10 | 0.10 | 88 | 1013.0 |
| 20260904151336 | 51 | 83 | 0.0 | 0.0 | 0.00 | 0.10 | 0.10 | 88 | 1012.9 |
| 20260904150833 | 51 | 83 | 0.0 | 0.0 | 0.00 | 0.10 | 0.10 | 88 | 1012.9 |
| 20260904150346 | 51 | 83 | 0.0 | 0.0 | 0.00 | 0.10 | 0.10 | 88 | 1012.9 |
| 20260904145846 | 50 | 83 | 0.0 | 0.0 | 0.00 | 0.10 | 0.10 | 87 | 1012.8 |
| 20260904145334 | 50 | 83 | 0.0 | 0.0 | 0.00 | 0.10 | 0.10 | 87 | 1012.8 |
| 20260904144830 | 50 | 83 | 0.0 | 1.0 | 0.00 | 0.10 | 0.10 | 87 | 1012.6 |
| 20260904144327 | 50 | 83 | 0.0 | 1.0 | 0.00 | 0.11 | 0.10 | 87 | 1012.4 |
| 20260904143829 | 50 | 83 | 0.0 | 2.0 | 0.00 | 0.11 | 0.10 | 87 | 1012.5 |
| 20260904143328 | 50 | 83 | 0.0 | 2.0 | 0.00 | 0.11 | 0.10 | 87 | 1012.4 |
| 20260904142824 | 50 | 83 | 0.0 | 0.0 | 0.00 | 0.12 | 0.10 | 87 | 1012.3 |
| 20260904142636 | 49 | 83 | 0.0 | 0.0 | 0.00 | 0.12 | 0.10 | 87 | 1012.2 |
| 20260904141811 | 49 | 83 | 0.0 | 0.0 | 0.00 | 0.12 | 0.10 | 87 | 1012.2 |
| 20260904141532 | 0 | 0.0 | 0.0 | 0.00 | 0.00 | 0.00 | |||
| 20260904141326 | 0 | 0.0 | 0.0 | 0.00 | 0.00 | 0.00 | |||
| 20260904140529 | 0 | 0.0 | 0.0 | 0.00 | 0.00 | 0.00 | |||
| 20260904140031 | 0 | 0.0 | 0.0 | 0.00 | 0.00 | 0.00 | |||
| 20260904135822 | 0 | 0.0 | 0.0 | 0.00 | 0.00 | 0.00 | |||
| 20260904135030 | 0 | 0.0 | 0.0 | 0.00 | 0.00 | 0.00 | |||
| 20260904134529 | 0 | 0.0 | 0.0 | 0.00 | 0.00 | 0.00 | |||
| 20260904134031 | 0 | 0.0 | 0.0 | 0.00 | 0.00 | 0.00 | |||
| 20260904133814 | 0 | 0.0 | 0.0 | 0.00 | 0.00 | 0.00 | |||
| 20260904133032 | 0 | 0.0 | 0.0 | 0.00 | 0.00 | 0.00 | |||
| 20260904132812 | 0 | 0.0 | 0.0 | 0.00 | 0.00 | 0.00 | |||
| 20260904132029 | 0 | 0.0 | 0.0 | 0.00 | 0.00 | 0.00 | |||
| 20260904131804 | 0 | 0.0 | 0.0 | 0.00 | 0.00 | 0.00 | |||
| 20260904131006 | 0 | 0.0 | 0.0 | 0.00 | 0.00 | 0.00 | |||
| 20260904130742 | 0 | 0.0 | 0.0 | 0.00 | 0.00 | 0.00 | |||
| 20260904130006 | 0 | 0.0 | 0.0 | 0.00 | 0.00 | 0.00 | |||
| 20260904125506 | 0 | 0.0 | 0.0 | 0.00 | 0.00 | 0.00 | |||
| 20260904125005 | 0 | 0.0 | 0.0 | 0.00 | 0.00 | 0.00 | |||
| 20260904124505 | 0 | 0.0 | 0.0 | 0.00 | 0.00 | 0.00 | |||
| 20260904123958 | 0 | 0.0 | 0.0 | 0.00 | 0.00 | 0.00 | |||
| 20260904123733 | 0 | 0.0 | 0.0 | 0.00 | 0.20 | 0.10 | |||
| 20260904123234 | 0 | 0.0 | 0.0 | 0.00 | 0.20 | 0.10 | |||
| 20260904122731 | 0 | 0.0 | 0.0 | 0.00 | 0.20 | 0.10 | |||
| 20260904122513 | 0 | 0.0 | 0.0 | 0.00 | 0.20 | 0.10 | |||
| 20260904121734 | 0 | 0.0 | 0.0 | 0.00 | 0.21 | 0.10 | |||
| 20260904121230 | 49 | 93 | 0.0 | 0.0 | 0.00 | 0.21 | 0.10 | 90 | 1010.6 |
| 20260904120733 | 49 | 93 | 0.0 | 0.0 | 0.00 | 0.22 | 0.10 | 90 | 1010.6 |
| 20260904120243 | 49 | 93 | 0.0 | 0.0 | 0.00 | 0.22 | 0.10 | 90 | 1010.5 |
| 20260904115731 | 49 | 93 | 0.0 | 0.0 | 0.00 | 0.22 | 0.10 | 90 | 1010.5 |
| 20260904115413 | 49 | 93 | 0.0 | 0.0 | 0.00 | 0.22 | 0.10 | 90 | 1010.3 |
| 20260904115333 | 49 | 93 | 0.0 | 0.0 | 0.00 | 0.22 | 0.10 | 90 | 1010.5 |
| 20260904114546 | 49 | 93 | 0.0 | 0.0 | 0.00 | 0.23 | 0.10 | 90 | 1010.2 |
| 20260904113734 | 49 | 93 | 0.0 | 0.0 | 0.00 | 0.23 | 0.10 | 90 | 1010.1 |
| 20260904113232 | 49 | 93 | 0.0 | 0.0 | 0.00 | 0.24 | 0.10 | 90 | 1010.2 |
| 20260904112731 | 49 | 93 | 0.0 | 0.0 | 0.00 | 0.24 | 0.10 | 90 | 1010.2 |
| 20260904112230 | 49 | 93 | 0.0 | 0.0 | 0.00 | 0.24 | 0.10 | 90 | 1010.2 |
| 20260904112047 | 49 | 93 | 0.0 | 0.0 | 0.00 | 0.24 | 0.10 | 90 | 1010.2 |
| 20260904111243 | 49 | 93 | 0.0 | 0.0 | 0.00 | 0.24 | 0.10 | 90 | 1010.3 |
| 20260904110731 | 49 | 93 | 0.0 | 0.0 | 0.00 | 0.24 | 0.10 | 90 | 1010.3 |
| 20260904110244 | 49 | 93 | 0.0 | 0.0 | 0.00 | 0.24 | 0.10 | 90 | 1010.0 |
| 20260904105732 | 49 | 93 | 0.0 | 0.0 | 0.00 | 0.24 | 0.10 | 90 | 1009.9 |
| 20260904105230 | 49 | 93 | 0.0 | 0.0 | 0.00 | 0.24 | 0.10 | 90 | 1009.9 |
| 20260904104731 | 49 | 93 | 0.0 | 0.0 | 0.00 | 0.24 | 0.10 | 90 | 1010.0 |
| 20260904104231 | 49 | 93 | 0.0 | 0.0 | 0.00 | 0.24 | 0.10 | 90 | 1010.0 |
| 20260904103733 | 49 | 93 | 0.0 | 0.0 | 0.00 | 0.24 | 0.10 | 90 | 1009.9 |
| 20260904103234 | 49 | 93 | 0.0 | 0.0 | 0.00 | 0.24 | 0.10 | 90 | 1009.4 |
| 20260904102740 | 49 | 93 | 0.0 | 0.0 | 0.00 | 0.24 | 0.10 | 90 | 1009.5 |
| 20260904102230 | 49 | 93 | 0.0 | 0.0 | 0.00 | 0.24 | 0.10 | 89 | 1009.6 |
| 20260904102049 | 49 | 93 | 0.0 | 0.0 | 0.00 | 0.24 | 0.10 | 89 | 1009.7 |
| 20260904101550 | 49 | 93 | 0.0 | 0.0 | 0.01 | 0.24 | 0.10 | 89 | 1009.7 |
| 20260904100731 | 49 | 93 | 0.0 | 0.0 | 0.01 | 0.24 | 0.10 | 89 | 1009.5 |
| 20260904100230 | 49 | 93 | 0.0 | 0.0 | 0.01 | 0.24 | 0.10 | 89 | 1009.5 |
| 20260904095731 | 49 | 93 | 0.0 | 0.0 | 0.01 | 0.23 | 0.10 | 89 | 1009.5 |
| 20260904095233 | 50 | 93 | 0.0 | 2.0 | 0.01 | 0.23 | 0.10 | 89 | 1009.7 |
| 20260904095048 | 50 | 93 | 0.0 | 2.0 | 0.01 | 0.23 | 0.10 | 89 | 1009.6 |
| 20260904094232 | 50 | 93 | 0.0 | 0.0 | 0.01 | 0.23 | 0.10 | 89 | 1009.7 |
| 20260904093731 | 49 | 93 | 0.0 | 0.0 | 0.01 | 0.23 | 0.10 | 89 | 1009.9 |
| 20260904093230 | 50 | 93 | 0.0 | 0.0 | 0.02 | 0.23 | 0.10 | 89 | 1009.9 |
| 20260904092731 | 50 | 93 | 0.0 | 0.0 | 0.02 | 0.23 | 0.10 | 89 | 1009.7 |
| 20260904092231 | 50 | 93 | 0.0 | 0.0 | 0.02 | 0.23 | 0.10 | 89 | 1009.8 |
| 20260904091731 | 50 | 93 | 0.0 | 0.0 | 0.02 | 0.23 | 0.09 | 89 | 1010.1 |
| 20260904091231 | 50 | 93 | 0.0 | 0.0 | 0.02 | 0.23 | 0.09 | 89 | 1010.2 |
| 20260904090730 | 50 | 93 | 0.0 | 0.0 | 0.02 | 0.23 | 0.09 | 89 | 1010.1 |
| 20260904090243 | 50 | 93 | 0.0 | 0.0 | 0.03 | 0.23 | 0.09 | 89 | 1009.8 |
| 20260904085732 | 50 | 93 | 0.0 | 0.0 | 0.04 | 0.20 | 0.09 | 88 | 1009.7 |
| 20260904085231 | 50 | 93 | 0.0 | 0.0 | 0.05 | 0.20 | 0.09 | 88 | 1009.7 |
| 20260904084730 | 50 | 93 | 0.0 | 1.0 | 0.06 | 0.20 | 0.09 | 87 | 1009.6 |
| 20260904084231 | 50 | 93 | 0.0 | 1.0 | 0.06 | 0.20 | 0.09 | 87 | 1009.7 |
| 20260904083731 | 50 | 93 | 0.0 | 1.0 | 0.06 | 0.20 | 0.09 | 87 | 1009.7 |
| 20260904083544 | 50 | 93 | 0.0 | 0.0 | 0.06 | 0.20 | 0.09 | 87 | 1009.7 |
| 20260904082731 | 50 | 93 | 0.0 | 1.0 | 0.06 | 0.20 | 0.09 | 87 | 1009.6 |
| 20260904082232 | 50 | 93 | 0.0 | 1.0 | 0.06 | 0.20 | 0.08 | 87 | 1009.8 |
| 20260904081913 | 51 | 93 | 0.0 | 1.0 | 0.06 | 0.20 | 0.07 | 85 | 1010.0 |
| 20260904081832 | 51 | 93 | 0.0 | 0.0 | 0.06 | 0.20 | 0.08 | 87 | 1010.0 |
| 20260904080744 | 50 | 93 | 0.0 | 1.0 | 0.06 | 0.20 | 0.06 | 84 | 1010.1 |
| 20260904080231 | 51 | 93 | 0.0 | 0.0 | 0.06 | 0.20 | 0.06 | 85 | 1010.1 |
| 20260904075731 | 51 | 93 | 0.0 | 0.0 | 0.06 | 0.13 | 0.06 | 86 | 1010.0 |
| 20260904075230 | 51 | 93 | 0.0 | 0.0 | 0.05 | 0.13 | 0.05 | 84 | 1010.0 |
| 20260904075047 | 51 | 93 | 0.0 | 0.0 | 0.04 | 0.13 | 0.04 | 84 | 1010.0 |
| 20260904074546 | 51 | 93 | 0.0 | 0.0 | 0.03 | 0.13 | 0.03 | 83 | 1010.0 |
| 20260904073727 | 51 | 93 | 0.0 | 0.0 | 0.03 | 0.13 | 0.03 | 83 | 1009.9 |
| 20260904073550 | 51 | 93 | 0.0 | 0.0 | 0.02 | 0.13 | 0.02 | 82 | 1009.9 |
| 20260904072727 | 51 | 93 | 0.0 | 0.0 | 0.02 | 0.13 | 0.02 | 81 | 1009.9 |
| 20260904072543 | 52 | 93 | 0.0 | 0.0 | 0.02 | 0.13 | 0.02 | 79 | 1009.8 |
| 20260904071721 | 52 | 93 | 0.0 | 0.0 | 0.02 | 0.13 | 0.02 | 79 | 1009.8 |
| 20260904071236 | 52 | 93 | 0.0 | 0.0 | 0.02 | 0.13 | 0.02 | 78 | 1009.7 |
| 20260904070723 | 52 | 93 | 0.0 | 0.0 | 0.01 | 0.13 | 0.01 | 75 | 1009.7 |
| 20260904070536 | 53 | 93 | 0.0 | 0.0 | 0.00 | 0.13 | 0.00 | 72 | 1009.6 |
| 20260904065720 | 53 | 93 | 0.0 | 0.0 | 0.00 | 0.13 | 0.13 | 75 | 1009.6 |
| 20260904065217 | 53 | 93 | 0.0 | 0.0 | 0.00 | 0.13 | 0.13 | 72 | 1009.6 |
| 20260904064715 | 53 | 93 | 0.0 | 2.0 | 0.00 | 0.13 | 0.13 | 71 | 1009.6 |
| 20260904064216 | 53 | 93 | 0.0 | 2.0 | 0.00 | 0.13 | 0.13 | 69 | 1009.4 |
| 20260904063718 | 54 | 93 | 0.0 | 0.0 | 0.00 | 0.13 | 0.13 | 69 | 1009.2 |
| 20260904063216 | 54 | 93 | 0.0 | 0.0 | 0.00 | 0.13 | 0.13 | 68 | 1009.1 |
| 20260904062711 | 54 | 93 | 0.0 | 0.0 | 0.00 | 0.13 | 0.13 | 68 | 1009.1 |
| 20260904062519 | 54 | 93 | 0.0 | 0.0 | 0.00 | 0.13 | 0.13 | 68 | 1009.1 |
| 20260904061712 | 54 | 93 | 0.0 | 0.0 | 0.00 | 0.13 | 0.13 | 68 | 1009.4 |
| 20260904061525 | 54 | 93 | 0.0 | 0.0 | 0.00 | 0.13 | 0.13 | 67 | 1009.5 |
| 20260904060706 | 54 | 93 | 0.0 | 0.0 | 0.00 | 0.13 | 0.13 | 67 | 1009.5 |
| 20260904060515 | 54 | 93 | 0.0 | 1.0 | 0.00 | 0.13 | 0.13 | 67 | 1009.5 |
| 20260904055703 | 54 | 93 | 0.0 | 1.0 | 0.00 | 0.13 | 0.13 | 67 | 1009.6 |
| 20260904055217 | 54 | 93 | 0.0 | 1.0 | 0.00 | 0.13 | 0.13 | 67 | 1009.7 |
| 20260904054703 | 54 | 93 | 0.0 | 1.0 | 0.00 | 0.13 | 0.13 | 67 | 1009.6 |
| 20260904054207 | 54 | 93 | 0.0 | 0.0 | 0.00 | 0.13 | 0.13 | 66 | 1009.6 |
| 20260904053809 | 54 | 93 | 0.0 | 3.0 | 0.00 | 0.13 | 0.13 | 65 | 1009.6 |
| 20260904052708 | 54 | 93 | 0.0 | 3.0 | 0.00 | 0.13 | 0.13 | 64 | 1009.5 |
| 20260904052219 | 54 | 93 | 0.0 | 3.0 | 0.00 | 0.13 | 0.13 | 63 | 1009.5 |
| 20260904051708 | 54 | 93 | 0.0 | 3.0 | 0.00 | 0.13 | 0.13 | 64 | 1009.6 |
| 20260904051207 | 55 | 94 | 0.0 | 3.0 | 0.00 | 0.13 | 0.13 | 64 | 1009.7 |
| 20260904050704 | 55 | 94 | 0.0 | 2.0 | 0.00 | 0.13 | 0.13 | 63 | 1009.6 |
| 20260904050202 | 55 | 94 | 0.0 | 1.0 | 0.00 | 0.13 | 0.13 | 64 | 1009.7 |
| 20260904045702 | 54 | 94 | 0.0 | 0.0 | 0.00 | 0.13 | 0.13 | 64 | 1009.9 |
| 20260904045205 | 54 | 94 | 0.0 | 0.0 | 0.00 | 0.13 | 0.13 | 65 | 1009.8 |
| 20260904045019 | 54 | 94 | 0.0 | 0.0 | 0.00 | 0.13 | 0.13 | 65 | 1009.9 |
| 20260904044216 | 54 | 94 | 0.0 | 0.0 | 0.00 | 0.13 | 0.13 | 64 | 1009.8 |
| 20260904043717 | 54 | 94 | 0.0 | 0.0 | 0.00 | 0.13 | 0.13 | 64 | 1009.8 |
| 20260904043203 | 54 | 94 | 0.0 | 0.0 | 0.00 | 0.13 | 0.13 | 65 | 1009.9 |
| 20260904042703 | 54 | 94 | 0.0 | 0.0 | 0.00 | 0.13 | 0.13 | 66 | 1009.8 |
| 20260904042218 | 54 | 94 | 0.0 | 0.0 | 0.00 | 0.13 | 0.13 | 66 | 1009.9 |
| 20260904042008 | 54 | 94 | 0.0 | 0.0 | 0.00 | 0.13 | 0.13 | 66 | 1009.9 |
| 20260904041218 | 54 | 94 | 0.0 | 0.0 | 0.00 | 0.13 | 0.13 | 66 | 1009.8 |
| 20260904040709 | 55 | 94 | 0.0 | 0.0 | 0.00 | 0.13 | 0.13 | 66 | 1009.8 |
| 20260904040209 | 55 | 94 | 0.0 | 0.0 | 0.00 | 0.13 | 0.13 | 65 | 1009.7 |
| 20260904035701 | 55 | 94 | 0.0 | 0.0 | 0.00 | 0.13 | 0.13 | 64 | 1009.7 |
| 20260904035203 | 55 | 94 | 0.0 | 0.0 | 0.00 | 0.13 | 0.13 | 64 | 1009.6 |
| 20260904034701 | 55 | 94 | 0.0 | 0.0 | 0.00 | 0.13 | 0.13 | 64 | 1009.6 |
| 20260904034202 | 55 | 94 | 0.0 | 0.0 | 0.00 | 0.13 | 0.13 | 64 | 1009.6 |
| 20260904034021 | 55 | 94 | 0.0 | 0.0 | 0.00 | 0.13 | 0.13 | 64 | 1009.6 |
| 20260904033203 | 56 | 94 | 0.0 | 0.0 | 0.00 | 0.13 | 0.13 | 64 | 1009.7 |
| 20260904032701 | 56 | 94 | 0.0 | 0.0 | 0.00 | 0.13 | 0.13 | 63 | 1009.7 |
| 20260904032203 | 56 | 94 | 0.0 | 0.0 | 0.00 | 0.13 | 0.13 | 63 | 1009.6 |
| 20260904031701 | 56 | 94 | 0.0 | 0.0 | 0.00 | 0.13 | 0.13 | 62 | 1009.6 |
| 20260904031202 | 56 | 94 | 0.0 | 0.0 | 0.00 | 0.13 | 0.13 | 62 | 1009.6 |
| 20260904030705 | 57 | 94 | 0.0 | 0.0 | 0.00 | 0.13 | 0.13 | 62 | 1009.6 |
| 20260904030204 | 57 | 94 | 0.0 | 0.0 | 0.00 | 0.13 | 0.13 | 60 | 1009.5 |
| 20260904025704 | 58 | 94 | 0.0 | 0.0 | 0.00 | 0.13 | 0.13 | 60 | 1009.5 |
| 20260904025204 | 58 | 94 | 0.0 | 0.0 | 0.00 | 0.13 | 0.13 | 60 | 1009.6 |
| 20260904024826 | 59 | 94 | 0.0 | 0.0 | 0.00 | 0.13 | 0.13 | 59 | 1009.4 |
| 20260904024752 | 58 | 94 | 0.0 | 0.0 | 0.00 | 0.13 | 0.13 | 59 | 1009.5 |
| 20260904024002 | 0 | 0.0 | 0.0 | 0.00 | 0.13 | 0.13 | |||
| 20260904023506 | 0 | 0.0 | 0.0 | 0.00 | 0.13 | 0.13 | |||
| 20260904022952 | 0 | 0.0 | 0.0 | 0.00 | 0.13 | 0.13 | |||
| 20260904022450 | 0 | 0.0 | 0.0 | 0.00 | 0.13 | 0.13 | |||
| 20260904021934 | 60 | 94 | 0.0 | 0.0 | 0.00 | 0.13 | 0.13 | 57 | 1009.5 |
| 20260904021431 | 60 | 94 | 0.0 | 0.0 | 0.00 | 0.13 | 0.13 | 57 | 1009.5 |
| 20260904020932 | 61 | 94 | 0.0 | 0.0 | 0.00 | 0.13 | 0.13 | 57 | 1009.5 |
| 20260904020431 | 61 | 94 | 0.0 | 0.0 | 0.00 | 0.13 | 0.13 | 56 | 1009.5 |
| 20260904015933 | 62 | 95 | 0.0 | 0.0 | 0.00 | 0.13 | 0.13 | 54 | 1009.5 |
| 20260904015432 | 62 | 95 | 0.0 | 0.0 | 0.00 | 0.13 | 0.13 | 54 | 1009.5 |
| 20260904015247 | 62 | 94 | 0.0 | 2.0 | 0.00 | 0.13 | 0.13 | 52 | 1009.5 |
| 20260904014430 | 63 | 95 | 0.0 | 2.0 | 0.00 | 0.13 | 0.13 | 52 | 1009.5 |
| 20260904013932 | 63 | 94 | 0.0 | 3.0 | 0.00 | 0.13 | 0.13 | 51 | 1009.5 |
| 20260904013619 | 63 | 103 | 0.0 | 5.0 | 0.00 | 0.13 | 0.13 | 50 | 1009.5 |
| 20260904013534 | 63 | 94 | 0.0 | 5.0 | 0.00 | 0.13 | 0.13 | 49 | 1009.5 |
| 20260904012630 | 64 | 99 | 1.0 | 5.0 | 0.00 | 0.13 | 0.13 | 48 | 1009.6 |
| 20260904012541 | 64 | 73 | 1.0 | 5.0 | 0.00 | 0.13 | 0.13 | 49 | 1009.5 |
| 20260904011431 | 65 | 108 | 1.0 | 4.0 | 0.00 | 0.13 | 0.13 | 48 | 1009.6 |
| 20260904010945 | 65 | 139 | 1.0 | 4.0 | 0.00 | 0.13 | 0.13 | 47 | 1009.6 |
| 20260904010443 | 65 | 56 | 1.0 | 4.0 | 0.00 | 0.13 | 0.13 | 45 | 1009.6 |
| 20260904010246 | 65 | 83 | 1.0 | 4.0 | 0.00 | 0.13 | 0.13 | 45 | 1009.6 |
| 20260904005442 | 65 | 110 | 0.0 | 3.0 | 0.00 | 0.13 | 0.13 | 42 | 1009.7 |
| 20260904004931 | 65 | 113 | 0.0 | 3.0 | 0.00 | 0.13 | 0.13 | 42 | 1009.6 |
| 20260904004749 | 65 | 64 | 0.0 | 3.0 | 0.00 | 0.13 | 0.13 | 42 | 1009.7 |
| 20260904004245 | 66 | 64 | 0.0 | 2.0 | 0.00 | 0.13 | 0.13 | 42 | 1009.6 |
| 20260904003806 | 67 | 64 | 0.0 | 2.0 | 0.00 | 0.13 | 0.13 | 40 | 1009.7 |
| 20260904002928 | 67 | 58 | 0.0 | 6.0 | 0.00 | 0.13 | 0.13 | 40 | 1009.7 |
| 20260904002741 | 68 | 47 | 0.0 | 6.0 | 0.00 | 0.13 | 0.13 | 39 | 1009.6 |
| 20260904001928 | 68 | 185 | 1.0 | 4.0 | 0.00 | 0.13 | 0.13 | 38 | 1009.6 |
| 20260904001428 | 68 | 144 | 1.0 | 4.0 | 0.00 | 0.13 | 0.13 | 37 | 1009.6 |
| 20260904001035 | 67 | 37 | 1.0 | 4.0 | 0.00 | 0.13 | 0.13 | 40 | 1009.6 |
| 20260903235922 | 66 | 77 | 0.0 | 3.0 | 0.00 | 0.13 | 0.13 | 41 | 1009.6 |
| 20260903235420 | 66 | 67 | 0.0 | 2.0 | 0.00 | 0.13 | 0.13 | 42 | 1009.6 |
| 20260903234923 | 65 | 68 | 0.0 | 2.0 | 0.00 | 0.13 | 0.13 | 41 | 1009.6 |
| 20260903234420 | 65 | 68 | 0.0 | 5.0 | 0.00 | 0.13 | 0.13 | 40 | 1009.5 |
| 20260903233918 | 66 | 67 | 0.0 | 5.0 | 0.00 | 0.13 | 0.13 | 40 | 1009.6 |
| 20260903233412 | 66 | 68 | 1.0 | 5.0 | 0.00 | 0.13 | 0.13 | 39 | 1009.7 |
| 20260903232912 | 67 | 66 | 1.0 | 5.0 | 0.00 | 0.13 | 0.13 | 41 | 1009.7 |
| 20260903232412 | 68 | 78 | 0.0 | 4.0 | 0.00 | 0.13 | 0.13 | 41 | 1009.8 |
| 20260903231921 | 67 | 99 | 0.0 | 3.0 | 0.00 | 0.13 | 0.13 | 41 | 1009.9 |
| 20260903231548 | 67 | 93 | 1.0 | 4.0 | 0.00 | 0.13 | 0.13 | 42 | 1009.9 |
| 20260903231514 | 67 | 93 | 0.0 | 4.0 | 0.00 | 0.13 | 0.13 | 41 | 1009.9 |
| 20260903230413 | 67 | 88 | 1.0 | 5.0 | 0.00 | 0.13 | 0.13 | 43 | 1010.0 |
| 20260903225915 | 67 | 112 | 1.0 | 5.0 | 0.00 | 0.13 | 0.13 | 42 | 1010.0 |
| 20260903225414 | 67 | 190 | 1.0 | 5.0 | 0.00 | 0.13 | 0.13 | 41 | 1010.0 |
| 20260903224915 | 67 | 140 | 1.0 | 5.0 | 0.00 | 0.13 | 0.13 | 40 | 1010.0 |
| 20260903224546 | 67 | 96 | 1.0 | 5.0 | 0.00 | 0.13 | 0.13 | 44 | 1010.1 |
| 20260903224513 | 67 | 54 | 1.0 | 5.0 | 0.00 | 0.13 | 0.13 | 45 | 1010.1 |
| 20260903223413 | 66 | 251 | 2.0 | 5.0 | 0.00 | 0.13 | 0.13 | 44 | 1010.1 |
| 20260903223051 | 66 | 140 | 1.0 | 5.0 | 0.00 | 0.13 | 0.13 | 47 | 1010.2 |
| 20260903223018 | 66 | 135 | 1.0 | 5.0 | 0.00 | 0.13 | 0.13 | 44 | 1010.1 |
| 20260903221920 | 65 | 131 | 2.0 | 4.0 | 0.00 | 0.13 | 0.13 | 46 | 1010.2 |
| 20260903221730 | 65 | 67 | 1.0 | 4.0 | 0.00 | 0.13 | 0.13 | 47 | 1010.2 |
| 20260903220912 | 65 | 67 | 1.0 | 5.0 | 0.00 | 0.13 | 0.13 | 51 | 1010.3 |
| 20260903220412 | 65 | 125 | 1.0 | 5.0 | 0.00 | 0.13 | 0.13 | 49 | 1010.3 |
| 20260903215913 | 64 | 66 | 1.0 | 5.0 | 0.00 | 0.13 | 0.13 | 50 | 1010.2 |
| 20260903215415 | 64 | 66 | 1.0 | 6.0 | 0.00 | 0.13 | 0.13 | 51 | 1010.3 |
| 20260903214911 | 64 | 54 | 1.0 | 6.0 | 0.00 | 0.13 | 0.13 | 52 | 1010.4 |
| 20260903214412 | 64 | 63 | 2.0 | 8.0 | 0.00 | 0.13 | 0.13 | 55 | 1010.4 |
| 20260903213911 | 63 | 77 | 2.0 | 8.0 | 0.00 | 0.13 | 0.13 | 58 | 1010.5 |
| 20260903213410 | 63 | 83 | 1.0 | 6.0 | 0.00 | 0.13 | 0.13 | 59 | 1010.5 |
| 20260903212911 | 62 | 59 | 2.0 | 7.0 | 0.00 | 0.13 | 0.13 | 62 | 1010.5 |
| 20260903212406 | 60 | 87 | 2.0 | 9.0 | 0.00 | 0.13 | 0.13 | 67 | 1010.5 |
| 20260903211909 | 59 | 50 | 2.0 | 9.0 | 0.00 | 0.13 | 0.13 | 67 | 1010.5 |
| 20260903211405 | 59 | 57 | 2.0 | 7.0 | 0.00 | 0.13 | 0.13 | 65 | 1010.8 |
| 20260903210908 | 59 | 64 | 2.0 | 7.0 | 0.00 | 0.13 | 0.13 | 63 | 1011.1 |
| 20260903210409 | 60 | 64 | 1.0 | 6.0 | 0.00 | 0.13 | 0.13 | 58 | 1011.3 |
| 20260903205906 | 60 | 48 | 1.0 | 6.0 | 0.00 | 0.13 | 0.13 | 60 | 1011.2 |
| 20260903205408 | 60 | 60 | 1.0 | 5.0 | 0.00 | 0.13 | 0.13 | 58 | 1011.1 |
| 20260903204908 | 60 | 82 | 0.0 | 4.0 | 0.00 | 0.13 | 0.13 | 59 | 1010.9 |
| 20260903204407 | 60 | 69 | 1.0 | 6.0 | 0.00 | 0.13 | 0.13 | 60 | 1010.9 |
| 20260903203907 | 60 | 136 | 1.0 | 6.0 | 0.00 | 0.13 | 0.13 | 61 | 1010.9 |
| 20260903203406 | 60 | 77 | 1.0 | 7.0 | 0.00 | 0.13 | 0.13 | 60 | 1010.8 |
| 20260903203224 | 60 | 111 | 1.0 | 7.0 | 0.00 | 0.13 | 0.13 | 59 | 1010.8 |
| 20260903202408 | 60 | 175 | 1.0 | 7.0 | 0.00 | 0.13 | 0.13 | 62 | 1010.7 |
| 20260903201908 | 61 | 56 | 2.0 | 7.0 | 0.00 | 0.13 | 0.13 | 60 | 1010.6 |
| 20260903201407 | 61 | 152 | 2.0 | 11.0 | 0.00 | 0.13 | 0.13 | 58 | 1010.6 |
| 20260903200909 | 61 | 42 | 2.0 | 11.0 | 0.00 | 0.13 | 0.13 | 60 | 1010.6 |
| 20260903200418 | 62 | 182 | 1.0 | 6.0 | 0.00 | 0.13 | 0.13 | 60 | 1010.6 |
| 20260903195907 | 62 | 215 | 1.0 | 6.0 | 0.00 | 0.13 | 0.13 | 54 | 1010.6 |
| 20260903195720 | 62 | 112 | 0.0 | 3.0 | 0.00 | 0.13 | 0.13 | 56 | 1010.6 |
| 20260903194908 | 61 | 104 | 1.0 | 4.0 | 0.00 | 0.13 | 0.13 | 57 | 1010.6 |
| 20260903194715 | 61 | 104 | 1.0 | 5.0 | 0.00 | 0.13 | 0.13 | 57 | 1010.6 |
| 20260903193908 | 61 | 65 | 1.0 | 5.0 | 0.00 | 0.13 | 0.13 | 56 | 1010.6 |